Weather History for Hastings, NE

Change the Weather History Date:

Wednesday, February 27, 2013

  Actual Average Record
Temperature  
Mean Temperature 29 °F 34 °F  
Max Temperature 36 °F 44 °F 77 °F (2006)
Min Temperature 22 °F 23 °F -8 °F (1962)
Degree Days  
Heating Degree Days 36 32  
Month to date heating degree days 942 951  
Since 1 July heating degree days 4592 4600  
Cooling Degree Days 0 0  
Month to date cooling degree days 0 0  
Year to date cooling degree days 0 0  
Moisture  
Dew Point 23 °F    
Average Humidity 77    
Maximum Humidity 92    
Minimum Humidity 61    
Precipitation  
Precipitation 0.00 in 0.02 in 1.13 in (1958)
Month to date precipitation 0.90 0.47  
Year to date precipitation 1.22 0.88  
Snow  
Snow 0.00 in 0.20 in 10.00 in (1915)
Month to date snowfall 10.5 6.3  
Since 1 July snowfall 23.8 22.2  
Snow Depth 4.00 in    
Sea Level Pressure  
Sea Level Pressure 30.10 in    
Wind  
Wind Speed 18 mph (NNW)    
Max Wind Speed 28 mph    
Max Gust Speed 32 mph    
Visibility 10 miles    
Events      
T = Trace of Precipitation, MM = Missing Value Source: NWS Daily Summary

Daily Weather History Graph

Daily Weather History Graph

Search for Another Location

Airport:

Trip Planner

Search our weather history database for the weather conditions in past years. The results will help you decide how hot, cold, wet, or windy it might be!

Date:

Astronomy

Feb. 27, 2013 Rise Set
Actual Time 7:10 AM CST 6:23 PM CST
Civil Twilight 6:42 AM CST 6:50 PM CST
Nautical Twilight 6:11 AM CST 7:22 PM CST
Astronomical Twilight 5:39 AM CST 7:53 PM CST
Moon 8:47 PM CST (2/27) 7:45 AM CST (2/27)
Length of Visible Light 12h 07m
Length of Day
11h 13m
Waning Gibbous, 96% of the Moon is Illuminated
Feb 27
Waning Gibbous
Mar 4
Last Quarter
Mar 11
New
Mar 19
First Quarter
Mar 27
Full

Hourly Weather History & Observations

Time (CST) Temp. Windchill Dew Point Humidity Pressure Visibility Wind Dir Wind Speed Gust Speed Precip Events Conditions
12:53 AM 24.1 °F 12.5 °F 21.9 °F 91% 30.02 in 8.0 mi NNW 12.7 mph - N/A   Overcast
1:53 AM 24.1 °F 13.1 °F 21.0 °F 88% 30.02 in 9.0 mi North 11.5 mph - N/A   Overcast
2:53 AM 24.1 °F 11.5 °F 21.0 °F 88% 30.01 in 9.0 mi NNW 15.0 mph - N/A   Overcast
3:53 AM 24.1 °F 11.5 °F 21.0 °F 88% 30.00 in 9.0 mi NNW 15.0 mph - N/A   Overcast
4:07 AM 23.0 °F 9.6 °F 19.4 °F 86% 29.93 in 10.0 mi NNW 16.1 mph - N/A   Overcast
4:53 AM 21.9 °F 7.8 °F 19.9 °F 92% 30.00 in 10.0 mi NW 17.3 mph - N/A   Overcast
5:53 AM 23.0 °F 9.6 °F 19.0 °F 85% 30.03 in 10.0 mi North 16.1 mph - N/A   Mostly Cloudy
6:16 AM 23.0 °F 7.6 °F 19.4 °F 86% 29.97 in 10.0 mi North 21.9 mph - N/A   Mostly Cloudy
6:49 AM 21.2 °F 6.4 °F 19.4 °F 93% 29.98 in 10.0 mi NNW 18.4 mph - N/A   Scattered Clouds
6:53 AM 21.9 °F 7.3 °F 19.0 °F 89% 30.05 in 10.0 mi NNW 18.4 mph - N/A   Partly Cloudy
7:53 AM 23.0 °F 9.6 °F 19.0 °F 85% 30.08 in 10.0 mi NNW 16.1 mph - N/A   Clear
8:53 AM 27.0 °F 12.8 °F 19.9 °F 75% 30.11 in 10.0 mi NNW 21.9 mph - N/A   Clear
9:53 AM 28.9 °F 15.4 °F 21.0 °F 72% 30.13 in 10.0 mi NNW 21.9 mph - N/A   Clear
10:53 AM 30.9 °F 19.1 °F 21.9 °F 69% 30.14 in 10.0 mi NNW 18.4 mph - N/A   Clear
11:53 AM 33.1 °F 20.9 °F 21.9 °F 64% 30.15 in 10.0 mi NNW 21.9 mph - N/A   Clear
12:53 PM 34.0 °F 22.1 °F 25.0 °F 70% 30.15 in 10.0 mi NNW 21.9 mph - N/A   Clear
1:53 PM 35.1 °F 23.0 °F 26.1 °F 70% 30.15 in 10.0 mi NNW 24.2 mph - N/A   Clear
2:53 PM 36.0 °F 24.2 °F 26.1 °F 67% 30.16 in 10.0 mi NNW 24.2 mph - N/A   Partly Cloudy
3:53 PM 36.0 °F 25.0 °F 26.1 °F 67% 30.16 in 10.0 mi NNW 20.7 mph - N/A   Clear
4:53 PM 35.1 °F 24.5 °F 26.1 °F 70% 30.18 in 10.0 mi NNW 18.4 mph - N/A   Clear
5:53 PM 33.1 °F 22.6 °F 26.1 °F 75% 30.19 in 10.0 mi NNW 16.1 mph - N/A   Scattered Clouds
6:13 PM 33.8 °F 24.3 °F 26.6 °F 75% 30.12 in 10.0 mi NNW 13.8 mph - N/A   Scattered Clouds
6:53 PM 32.0 °F 20.8 °F 26.1 °F 79% 30.19 in 10.0 mi NNW 17.3 mph - N/A   Clear
7:53 PM 32.0 °F 21.2 °F 26.1 °F 79% 30.20 in 10.0 mi NNW 16.1 mph - N/A   Mostly Cloudy
8:53 PM 32.0 °F 19.8 °F 25.0 °F 75% 30.20 in 10.0 mi NW 20.7 mph - N/A   Overcast
9:53 PM 32.0 °F 20.8 °F 25.0 °F 75% 30.20 in 10.0 mi NNW 17.3 mph - N/A   Overcast
10:53 PM 30.9 °F 19.8 °F 25.0 °F 79% 30.19 in 10.0 mi NNW 16.1 mph - N/A   Overcast
11:53 PM 30.2 °F 18.1 °F 24.8 °F 80% 30.13 in 10.0 mi NNW 18.4 mph - N/A   Overcast